^^

..:: Storico WU ::..




Lo storico viene creato da WUnderground con i dati che la stazione Meteomincio invia al loro server. L' aggiornamento viene fatto ogni 5 minuti circa, tuttavia possono esserci intervalli pił ampi a causa di errori, interruzioni di servizio o problemi nell' invio tramite FTP.


Storico stazione MeteoMincio
Giorno Sommario per Gennaio 18, 2022 Unità:  Inglese    Metrico   Entrambi
Giorno Settimana Mese Anno
  Max: Min: Media:
Temperatura: 50 °F 26.6 °F 36.9 °F
Dew Point: 44.6 °F 26.6 °F 34.9 °F
Umidità: 98% 75% 93%
Velocità vento: 9.9mph 0mph 2.6mph
Raffica: 11.8mph - -
Direzione- - SW
Pressione: 30.6 in 30.3 in -
Precipitazioni: 0 in    
 
 
Tabulato Dati per Gennaio 18, 2022
Ora Temperatura Dew Point Pressione Direzione Velocità vento Raffica Umidità Intensità pioggia (oraria) Info solare Situazione
00:04 37.4 °F 33.8 °F 30.3 in ENE 9.3 mph 11.8 mph 86% 0 in 0.00 W/m2 unknown
00:09 37.4 °F 32 °F 30.3 in ENE 9.9 mph 11.8 mph 85% 0 in 0.00 W/m2 unknown
00:14 37.4 °F 33.8 °F 30.3 in ENE 7.5 mph 11.8 mph 85% 0 in 0.00 W/m2 unknown
00:19 37.4 °F 33.8 °F 30.3 in ENE 6.8 mph 9.3 mph 85% 0 in 0.00 W/m2 unknown
00:24 37.4 °F 33.8 °F 30.3 in ENE 6.2 mph 8.7 mph 85% 0 in 0.00 W/m2 unknown
00:29 37.4 °F 33.8 °F 30.3 in East 4.3 mph 8.1 mph 86% 0 in 0.00 W/m2 unknown
00:34 37.4 °F 33.8 °F 30.3 in East 5 mph 6.2 mph 86% 0 in 0.00 W/m2 unknown
00:39 37.4 °F 33.8 °F 30.3 in East 3.7 mph 5 mph 87% 0 in 0.00 W/m2 unknown
00:44 37.4 °F 33.8 °F 30.3 in ENE 5 mph 6.2 mph 87% 0 in 0.00 W/m2 unknown
00:49 37.4 °F 33.8 °F 30.3 in East 5 mph 6.8 mph 88% 0 in 0.00 W/m2 unknown
00:54 37.4 °F 33.8 °F 30.3 in East 5.6 mph 6.8 mph 89% 0 in 0.00 W/m2 unknown
00:59 37.4 °F 33.8 °F 30.3 in East 6.2 mph 6.8 mph 89% 0 in 0.00 W/m2 unknown
01:04 37.4 °F 35.6 °F 30.3 in East 5 mph 6.8 mph 90% 0 in 0.00 W/m2 unknown
01:09 37.4 °F 35.6 °F 30.3 in ESE 5.6 mph 8.1 mph 90% 0 in 0.00 W/m2 unknown
01:14 37.4 °F 35.6 °F 30.3 in ESE 6.2 mph 8.1 mph 90% 0 in 0.00 W/m2 unknown
01:19 37.4 °F 35.6 °F 30.3 in ESE 4.3 mph 6.8 mph 90% 0 in 0.00 W/m2 unknown
01:24 37.4 °F 35.6 °F 30.3 in ESE 5 mph 6.8 mph 91% 0 in 0.00 W/m2 unknown
01:29 37.4 °F 35.6 °F 30.3 in East 5.6 mph 6.8 mph 91% 0 in 0.00 W/m2 unknown
01:34 37.4 °F 35.6 °F 30.3 in East 5.6 mph 6.8 mph 91% 0 in 0.00 W/m2 unknown
01:39 37.4 °F 35.6 °F 30.3 in ESE 4.3 mph 6.8 mph 92% 0 in 0.00 W/m2 unknown
01:44 37.4 °F 35.6 °F 30.3 in ESE 5.6 mph 6.8 mph 92% 0 in 0.00 W/m2 unknown
01:49 37.4 °F 33.8 °F 30.3 in ESE 5 mph 6.8 mph 92% 0 in 0.00 W/m2 unknown
01:54 37.4 °F 33.8 °F 30.3 in ESE 3.1 mph 5 mph 92% 0 in 0.00 W/m2 unknown
01:59 37.4 °F 33.8 °F 30.3 in ESE 2.5 mph 3.7 mph 92% 0 in 0.00 W/m2 unknown
02:04 35.6 °F 33.8 °F 30.4 in ESE 2.5 mph 3.7 mph 93% 0 in 0.00 W/m2 unknown
02:09 35.6 °F 33.8 °F 30.4 in ESE 2.5 mph 3.7 mph 93% 0 in 0.00 W/m2 unknown
02:14 35.6 °F 33.8 °F 30.4 in ESE 1.9 mph 3.7 mph 93% 0 in 0.00 W/m2 unknown
02:19 35.6 °F 33.8 °F 30.4 in SE 2.5 mph 3.7 mph 93% 0 in 0.00 W/m2 unknown
02:24 35.6 °F 33.8 °F 30.4 in SSE 2.5 mph 3.7 mph 93% 0 in 0.00 W/m2 unknown
02:29 35.6 °F 33.8 °F 30.4 in SE 1.9 mph 3.7 mph 94% 0 in 0.00 W/m2 unknown
02:34 33.8 °F 32 °F 30.4 in SE 1.9 mph 3.1 mph 93% 0 in 0.00 W/m2 unknown
02:39 33.8 °F 32 °F 30.4 in Calm   1.9 mph 93% 0 in 0.00 W/m2 unknown
02:44 32 °F 32 °F 30.4 in Calm   1.2 mph 94% 0 in 0.00 W/m2 unknown
02:49 32 °F 32 °F 30.4 in ENE 1.9 mph 2.5 mph 94% 0 in 0.00 W/m2 unknown
02:54 33.8 °F 32 °F 30.4 in East 4.3 mph 6.2 mph 95% 0 in 0.00 W/m2 unknown
02:59 33.8 °F 32 °F 30.4 in East 5 mph 6.2 mph 95% 0 in 0.00 W/m2 unknown
03:04 35.6 °F 33.8 °F 30.4 in East 5.6 mph 6.2 mph 96% 0 in 0.00 W/m2 unknown
03:09 35.6 °F 33.8 °F 30.4 in ESE 5 mph 6.8 mph 96% 0 in 0.00 W/m2 unknown
03:14 35.6 °F 33.8 °F 30.4 in ESE 5 mph 6.8 mph 94% 0 in 0.00 W/m2 unknown
03:19 35.6 °F 33.8 °F 30.4 in SE 2.5 mph 6.8 mph 94% 0 in 0.00 W/m2 unknown
03:24 35.6 °F 33.8 °F 30.4 in SE 3.1 mph 3.7 mph 95% 0 in 0.00 W/m2 unknown
03:29 35.6 °F 33.8 °F 30.4 in SE 3.1 mph 5 mph 95% 0 in 0.00 W/m2 unknown
03:34 35.6 °F 33.8 °F 30.4 in ESE 3.1 mph 5 mph 95% 0 in 0.00 W/m2 unknown
03:39 35.6 °F 33.8 °F 30.4 in ESE 3.1 mph 3.7 mph 95% 0 in 0.00 W/m2 unknown
03:44 37.4 °F 35.6 °F 30.4 in SE 3.1 mph 3.7 mph 95% 0 in 0.00 W/m2 unknown
03:49 37.4 °F 35.6 °F 30.4 in SSE 1.9 mph 3.7 mph 95% 0 in 0.00 W/m2 unknown
03:54 37.4 °F 35.6 °F 30.4 in SSE 1.2 mph 3.1 mph 94% 0 in 0.00 W/m2 unknown
03:59 35.6 °F 33.8 °F 30.4 in SE 1.9 mph 3.7 mph 93% 0 in 0.00 W/m2 unknown
04:04 33.8 °F 33.8 °F 30.4 in East 2.5 mph 3.7 mph 94% 0 in 0.00 W/m2 unknown
04:09 35.6 °F 33.8 °F 30.4 in ESE 3.1 mph 3.7 mph 95% 0 in 0.00 W/m2 unknown
04:14 35.6 °F 33.8 °F 30.4 in SE 3.1 mph 3.7 mph 95% 0 in 0.00 W/m2 unknown
04:19 35.6 °F 33.8 °F 30.4 in SSE 1.9 mph 3.7 mph 95% 0 in 0.00 W/m2 unknown
04:24 35.6 °F 33.8 °F 30.4 in South 2.5 mph 3.7 mph 95% 0 in 0.00 W/m2 unknown
04:29 35.6 °F 33.8 °F 30.4 in SW 3.1 mph 3.7 mph 94% 0 in 0.00 W/m2 unknown
04:34 33.8 °F 32 °F 30.4 in SW 2.5 mph 3.7 mph 94% 0 in 0.00 W/m2 unknown
04:39 33.8 °F 32 °F 30.4 in SSW 3.7 mph 3.7 mph 95% 0 in 0.00 W/m2 unknown
04:44 33.8 °F 32 °F 30.4 in South 3.1 mph 3.7 mph 95% 0 in 0.00 W/m2 unknown
04:49 33.8 °F 33.8 °F 30.4 in South 2.5 mph 3.7 mph 96% 0 in 0.00 W/m2 unknown
04:54 33.8 °F 33.8 °F 30.4 in SE 2.5 mph 3.7 mph 96% 0 in 0.00 W/m2 unknown
04:59 33.8 °F 33.8 °F 30.4 in East 1.9 mph 3.7 mph 95% 0 in 0.00 W/m2 unknown
05:04 33.8 °F 32 °F 30.4 in NE 1.9 mph 3.1 mph 95% 0 in 0.00 W/m2 unknown
05:09 33.8 °F 32 °F 30.4 in NNW 2.5 mph 3.7 mph 95% 0 in 0.00 W/m2 unknown
05:14 33.8 °F 32 °F 30.4 in WNW 2.5 mph 3.7 mph 95% 0 in 0.00 W/m2 unknown
05:19 32 °F 32 °F 30.4 in NE 1.9 mph 3.7 mph 95% 0 in 0.00 W/m2 unknown
05:24 32 °F 32 °F 30.4 in NE 1.9 mph 3.1 mph 95% 0 in 0.00 W/m2 unknown
05:29 32 °F 32 °F 30.4 in NE 1.9 mph 2.5 mph 95% 0 in 0.00 W/m2 unknown
05:34 32 °F 30.2 °F 30.4 in NE 1.2 mph 1.9 mph 95% 0 in 0.00 W/m2 unknown
05:39 32 °F 30.2 °F 30.4 in Calm   1.2 mph 95% 0 in 0.00 W/m2 unknown
05:44 32 °F 30.2 °F 30.4 in Calm     95% 0 in 0.00 W/m2 unknown
05:49 32 °F 30.2 °F 30.4 in Calm     96% 0 in 0.00 W/m2 unknown
05:54 32 °F 30.2 °F 30.4 in Calm     96% 0 in 0.00 W/m2 unknown
05:59 32 °F 30.2 °F 30.4 in Calm     96% 0 in 0.00 W/m2 unknown
06:04 32 °F 30.2 °F 30.4 in WSW 1.2 mph 3.1 mph 96% 0 in 0.00 W/m2 unknown
06:09 32 °F 30.2 °F 30.4 in WNW 3.1 mph 3.7 mph 96% 0 in 0.00 W/m2 unknown
06:14 32 °F 30.2 °F 30.4 in NNW 3.1 mph 3.7 mph 96% 0 in 0.00 W/m2 unknown
06:19 32 °F 30.2 °F 30.4 in NW 2.5 mph 3.7 mph 96% 0 in 0.00 W/m2 unknown
06:24 32 °F 30.2 °F 30.4 in WNW 1.9 mph 3.7 mph 96% 0 in 0.00 W/m2 unknown
06:29 32 °F 30.2 °F 30.4 in NNW 1.9 mph 3.1 mph 96% 0 in 0.00 W/m2 unknown
06:34 32 °F 30.2 °F 30.4 in NNW 1.2 mph 2.5 mph 96% 0 in 0.00 W/m2 unknown
06:39 32 °F 30.2 °F 30.4 in NNW 1.2 mph 2.5 mph 96% 0 in 0.00 W/m2 unknown
06:44 32 °F 30.2 °F 30.4 in North 1.9 mph 2.5 mph 96% 0 in 0.00 W/m2 unknown
06:49 32 °F 30.2 °F 30.4 in North 1.9 mph 2.5 mph 96% 0 in 0.00 W/m2 unknown
06:54 32 °F 30.2 °F 30.4 in NNW 1.9 mph 3.7 mph 96% 0 in 0.00 W/m2 unknown
06:59 32 °F 30.2 °F 30.4 in NNW 1.9 mph 3.1 mph 96% 0 in 0.00 W/m2 unknown
07:04 32 °F 30.2 °F 30.4 in NNW 1.2 mph 2.5 mph 96% 0 in 0.00 W/m2 unknown
07:09 30.2 °F 30.2 °F 30.4 in NNW 1.2 mph 1.9 mph 96% 0 in 0.00 W/m2 unknown
07:14 30.2 °F 28.4 °F 30.4 in NNW 1.2 mph 1.9 mph 96% 0 in 0.00 W/m2 unknown
07:19 30.2 °F 28.4 °F 30.4 in NNW 1.9 mph 2.5 mph 96% 0 in 0.00 W/m2 unknown
07:24 30.2 °F 28.4 °F 30.4 in West 1.9 mph 3.7 mph 96% 0 in 0.00 W/m2 unknown
07:29 28.4 °F 28.4 °F 30.4 in West 1.9 mph 3.1 mph 95% 0 in 0.00 W/m2 unknown
07:34 28.4 °F 26.6 °F 30.4 in West 1.2 mph 2.5 mph 96% 0 in 0.00 W/m2 unknown
07:39 28.4 °F 26.6 °F 30.4 in WNW 1.2 mph 2.5 mph 96% 0 in 0.00 W/m2 unknown
07:44 28.4 °F 28.4 °F 30.4 in WNW 1.2 mph 2.5 mph 97% 0 in 0.00 W/m2 unknown
07:49 28.4 °F 28.4 °F 30.4 in WNW 1.9 mph 2.5 mph 97% 0 in 0.00 W/m2 unknown
07:54 28.4 °F 26.6 °F 30.5 in WNW 1.2 mph 2.5 mph 97% 0 in 0.00 W/m2 unknown
07:59 28.4 °F 26.6 °F 30.5 in WNW 1.2 mph 2.5 mph 97% 0 in 5.00 W/m2 unknown
08:04 28.4 °F 26.6 °F 30.5 in WNW 1.2 mph 2.5 mph 97% 0 in 7.00 W/m2 unknown
08:09 28.4 °F 26.6 °F 30.5 in Calm   1.2 mph 97% 0 in 11.00 W/m2 unknown
08:14 26.6 °F 26.6 °F 30.5 in Calm     97% 0 in 14.00 W/m2 unknown
08:19 26.6 °F 26.6 °F 30.5 in WNW 1.9 mph 2.5 mph 97% 0 in 19.00 W/m2 unknown
08:24 26.6 °F 26.6 °F 30.5 in WNW 1.9 mph 2.5 mph 97% 0 in 21.00 W/m2 unknown
08:29 26.6 °F 26.6 °F 30.5 in WNW 1.9 mph 3.7 mph 97% 0 in 26.00 W/m2 unknown
08:34 28.4 °F 26.6 °F 30.5 in NW 1.2 mph 3.1 mph 97% 0 in 32.00 W/m2 unknown
08:39 28.4 °F 26.6 °F 30.5 in NW 1.9 mph 2.5 mph 97% 0 in 35.00 W/m2 unknown
08:44 28.4 °F 26.6 °F 30.5 in NW 1.2 mph 2.5 mph 97% 0 in 40.00 W/m2 unknown
08:49 28.4 °F 26.6 °F 30.5 in NW 0.6 mph 2.5 mph 97% 0 in 51.00 W/m2 unknown
08:54 28.4 °F 26.6 °F 30.5 in Calm   1.9 mph 97% 0 in 56.00 W/m2 unknown
08:59 28.4 °F 26.6 °F 30.5 in Calm     97% 0 in 58.00 W/m2 unknown
09:04 28.4 °F 28.4 °F 30.5 in Calm     97% 0 in 65.00 W/m2 unknown
09:09 28.4 °F 28.4 °F 30.5 in Calm     97% 0 in 86.00 W/m2 unknown
09:14 30.2 °F 28.4 °F 30.5 in Calm     98% 0 in 88.00 W/m2 unknown
09:19 30.2 °F 30.2 °F 30.5 in NW 1.9 mph 2.5 mph 98% 0 in 93.00 W/m2 unknown
09:24 30.2 °F 30.2 °F 30.5 in NW 1.2 mph 2.5 mph 98% 0 in 116.00 W/m2 unknown
09:29 32 °F 30.2 °F 30.5 in Calm   1.9 mph 98% 0 in 127.00 W/m2 unknown
09:34 32 °F 30.2 °F 30.5 in Calm     98% 0 in 142.00 W/m2 unknown
09:39 32 °F 30.2 °F 30.5 in Calm     98% 0 in 151.00 W/m2 unknown
09:44 32 °F 30.2 °F 30.5 in Calm     98% 0 in 162.00 W/m2 unknown
09:49 32 °F 32 °F 30.5 in NW 1.2 mph 2.5 mph 98% 0 in 172.00 W/m2 unknown
09:54 33.8 °F 32 °F 30.5 in Calm   1.9 mph 98% 0 in 179.00 W/m2 unknown
09:59 33.8 °F 33.8 °F 30.5 in Calm   1.2 mph 98% 0 in 190.00 W/m2 unknown
10:04 33.8 °F 33.8 °F 30.5 in Calm   1.2 mph 98% 0 in 199.00 W/m2 unknown
10:09 35.6 °F 33.8 °F 30.5 in NW 0.6 mph 1.2 mph 98% 0 in 206.00 W/m2 unknown
10:14 35.6 °F 35.6 °F 30.5 in NW 0.6 mph 1.2 mph 98% 0 in 213.00 W/m2 unknown
10:19 35.6 °F 35.6 °F 30.5 in NW 0.6 mph 1.2 mph 98% 0 in 221.00 W/m2 unknown
10:24 37.4 °F 37.4 °F 30.5 in NW 0.6 mph 1.2 mph 98% 0 in 227.00 W/m2 unknown
10:29 37.4 °F 37.4 °F 30.5 in Calm   1.2 mph 98% 0 in 237.00 W/m2 unknown
10:34 39.2 °F 37.4 °F 30.5 in Calm     96% 0 in 248.00 W/m2 unknown
10:39 39.2 °F 37.4 °F 30.5 in Calm     95% 0 in 255.00 W/m2 unknown
10:44 39.2 °F 37.4 °F 30.5 in Calm   1.2 mph 95% 0 in 264.00 W/m2 unknown
10:49 41 °F 39.2 °F 30.5 in Calm   1.2 mph 94% 0 in 265.00 W/m2 unknown
10:54 41 °F 39.2 °F 30.5 in Calm     93% 0 in 278.00 W/m2 unknown
10:59 41 °F 39.2 °F 30.5 in Calm     92% 0 in 287.00 W/m2 unknown
11:04 41 °F 39.2 °F 30.5 in Calm     91% 0 in 292.00 W/m2 unknown
11:09 42.8 °F 39.2 °F 30.5 in Calm     91% 0 in 295.00 W/m2 unknown
11:14 42.8 °F 39.2 °F 30.5 in Calm     90% 0 in 308.00 W/m2 unknown
11:19 42.8 °F 39.2 °F 30.5 in Calm     90% 0 in 318.00 W/m2 unknown
11:24 42.8 °F 41 °F 30.5 in SW 1.2 mph 3.1 mph 90% 0 in 325.00 W/m2 unknown
11:29 42.8 °F 41 °F 30.5 in WSW 2.5 mph 3.7 mph 89% 0 in 329.00 W/m2 unknown
11:34 44.6 °F 41 °F 30.5 in WSW 2.5 mph 3.7 mph 88% 0 in 332.00 W/m2 unknown
11:39 44.6 °F 41 °F 30.5 in West 1.9 mph 3.7 mph 88% 0 in 339.00 W/m2 unknown
11:44 44.6 °F 41 °F 30.5 in West 1.9 mph 3.1 mph 87% 0 in 343.00 W/m2 unknown
11:49 44.6 °F 41 °F 30.5 in SW 2.5 mph 3.7 mph 87% 0 in 350.00 W/m2 unknown
11:54 44.6 °F 41 °F 30.5 in WSW 2.5 mph 3.7 mph 87% 0 in 353.00 W/m2 unknown
11:59 44.6 °F 41 °F 30.5 in West 1.9 mph 3.7 mph 86% 0 in 355.00 W/m2 unknown
12:04 46.4 °F 41 °F 30.5 in West 1.2 mph 3.1 mph 85% 0 in 362.00 W/m2 unknown
12:09 46.4 °F 41 °F 30.5 in WNW 0.6 mph 1.9 mph 85% 0 in 364.00 W/m2 unknown
12:14 46.4 °F 41 °F 30.5 in ENE 3.7 mph 5 mph 84% 0 in 369.00 W/m2 unknown
12:19 46.4 °F 41 °F 30.5 in East 4.3 mph 6.2 mph 81% 0 in 366.00 W/m2 unknown
12:24 46.4 °F 41 °F 30.5 in ESE 3.7 mph 6.2 mph 79% 0 in 371.00 W/m2 unknown
12:29 48.2 °F 41 °F 30.5 in ESE 2.5 mph 5 mph 80% 0 in 373.00 W/m2 unknown
12:34 48.2 °F 41 °F 30.5 in East 3.1 mph 5 mph 80% 0 in 374.00 W/m2 unknown
12:39 48.2 °F 42.8 °F 30.5 in ESE 3.1 mph 5 mph 79% 0 in 373.00 W/m2 unknown
12:44 48.2 °F 41 °F 30.5 in ESE 4.3 mph 6.2 mph 78% 0 in 369.00 W/m2 unknown
12:49 48.2 °F 42.8 °F 30.5 in ESE 3.1 mph 6.2 mph 78% 0 in 371.00 W/m2 unknown
12:54 48.2 °F 42.8 °F 30.5 in SE 3.1 mph 5 mph 78% 0 in 376.00 W/m2 unknown
12:59 48.2 °F 42.8 °F 30.5 in ESE 5 mph 6.2 mph 77% 0 in 374.00 W/m2 unknown
13:04 48.2 °F 42.8 °F 30.5 in SW 1.9 mph 6.2 mph 79% 0 in 371.00 W/m2 unknown
13:09 50 °F 42.8 °F 30.5 in ESE 4.3 mph 6.2 mph 78% 0 in 364.00 W/m2 unknown
13:14 50 °F 42.8 °F 30.5 in East 3.7 mph 6.8 mph 75% 0 in 364.00 W/m2 unknown
13:19 50 °F 42.8 °F 30.5 in East 4.3 mph 6.8 mph 75% 0 in 359.00 W/m2 unknown
13:24 50 °F 42.8 °F 30.5 in ESE 3.1 mph 6.2 mph 75% 0 in 355.00 W/m2 unknown
13:29 50 °F 42.8 °F 30.5 in South 3.7 mph 5 mph 77% 0 in 353.00 W/m2 unknown
13:34 50 °F 42.8 °F 30.5 in South 4.3 mph 5 mph 78% 0 in 348.00 W/m2 unknown
13:39 50 °F 42.8 °F 30.5 in SSW 3.7 mph 5 mph 78% 0 in 341.00 W/m2 unknown
13:44 50 °F 42.8 °F 30.5 in South 3.1 mph 5 mph 79% 0 in 330.00 W/m2 unknown
13:49 50 °F 42.8 °F 30.5 in South 5.6 mph 6.8 mph 79% 0 in 320.00 W/m2 unknown
13:54 50 °F 42.8 °F 30.5 in SSW 4.3 mph 6.8 mph 79% 0 in 322.00 W/m2 unknown
13:59 50 °F 42.8 °F 30.5 in SSW 4.3 mph 6.2 mph 80% 0 in 313.00 W/m2 unknown
14:04 50 °F 44.6 °F 30.5 in SW 4.3 mph 6.2 mph 83% 0 in 313.00 W/m2 unknown
14:09 50 °F 42.8 °F 30.5 in SSW 4.3 mph 6.2 mph 81% 0 in 308.00 W/m2 unknown
14:14 50 °F 42.8 °F 30.5 in SW 5 mph 6.2 mph 80% 0 in 302.00 W/m2 unknown
14:19 50 °F 44.6 °F 30.5 in SW 5 mph 6.8 mph 81% 0 in 283.00 W/m2 unknown
14:24 48.2 °F 44.6 °F 30.5 in SW 3.7 mph 6.8 mph 82% 0 in 278.00 W/m2 unknown
14:29 48.2 °F 42.8 °F 30.5 in SW 4.3 mph 6.2 mph 83% 0 in 267.00 W/m2 unknown
14:34 48.2 °F 42.8 °F 30.5 in SW 3.7 mph 6.2 mph 83% 0 in 262.00 W/m2 unknown
14:39 48.2 °F 42.8 °F 30.5 in WSW 5.6 mph 6.8 mph 85% 0 in 250.00 W/m2 unknown
14:44 48.2 °F 42.8 °F 30.5 in WSW 5.6 mph 6.8 mph 85% 0 in 246.00 W/m2 unknown
14:49 48.2 °F 42.8 °F 30.5 in WSW 5 mph 6.2 mph 86% 0 in 236.00 W/m2 unknown
14:54 46.4 °F 42.8 °F 30.5 in WSW 6.2 mph 6.8 mph 86% 0 in 221.00 W/m2 unknown
14:59 46.4 °F 42.8 °F 30.5 in WSW 5.6 mph 6.8 mph 86% 0 in 218.00 W/m2 unknown
15:04 46.4 °F 42.8 °F 30.5 in WSW 5 mph 6.8 mph 86% 0 in 213.00 W/m2 unknown
15:09 46.4 °F 42.8 °F 30.5 in WSW 3.1 mph 6.8 mph 86% 0 in 207.00 W/m2 unknown
15:14 46.4 °F 42.8 °F 30.5 in WSW 5 mph 6.2 mph 86% 0 in 193.00 W/m2 unknown
15:19 46.4 °F 42.8 °F 30.5 in WSW 5.6 mph 6.8 mph 87% 0 in 185.00 W/m2 unknown
15:24 46.4 °F 42.8 °F 30.5 in WSW 5 mph 6.8 mph 87% 0 in 171.00 W/m2 unknown
15:29 46.4 °F 42.8 °F 30.5 in WSW 5 mph 6.2 mph 87% 0 in 151.00 W/m2 unknown
15:34 46.4 °F 42.8 °F 30.5 in WSW 5.6 mph 6.8 mph 87% 0 in 149.00 W/m2 unknown
15:39 46.4 °F 42.8 °F 30.5 in SW 5 mph 6.8 mph 88% 0 in 137.00 W/m2 unknown
15:44 44.6 °F 42.8 °F 30.5 in WSW 5.6 mph 6.8 mph 88% 0 in 127.00 W/m2 unknown
15:49 44.6 °F 42.8 °F 30.5 in SW 5 mph 6.8 mph 89% 0 in 116.00 W/m2 unknown
15:54 44.6 °F 41 °F 30.5 in WSW 5.6 mph 6.8 mph 90% 0 in 104.00 W/m2 unknown
15:59 44.6 °F 41 °F 30.5 in SW 5.6 mph 6.8 mph 90% 0 in 95.00 W/m2 unknown
16:04 42.8 °F 41 °F 30.5 in SW 5 mph 6.8 mph 91% 0 in 79.00 W/m2 unknown
16:09 42.8 °F 39.2 °F 30.5 in WSW 5 mph 6.2 mph 92% 0 in 58.00 W/m2 unknown
16:14 41 °F 39.2 °F 30.5 in WSW 5 mph 6.2 mph 93% 0 in 42.00 W/m2 unknown
16:19 41 °F 39.2 °F 30.5 in WSW 5.6 mph 6.8 mph 94% 0 in 37.00 W/m2 unknown
16:24 39.2 °F 39.2 °F 30.5 in SW 5 mph 6.8 mph 95% 0 in 25.00 W/m2 unknown
16:29 39.2 °F 39.2 °F 30.5 in WSW 4.3 mph 6.2 mph 95% 0 in 21.00 W/m2 unknown
16:34 39.2 °F 39.2 °F 30.5 in SW 5.6 mph 6.2 mph 95% 0 in 18.00 W/m2 unknown
16:39 39.2 °F 39.2 °F 30.5 in WSW 5 mph 6.2 mph 96% 0 in 14.00 W/m2 unknown
16:44 39.2 °F 39.2 °F 30.5 in West 3.7 mph 5 mph 96% 0 in 11.00 W/m2 unknown
16:49 39.2 °F 37.4 °F 30.5 in West 3.7 mph 5 mph 96% 0 in 9.00 W/m2 unknown
16:54 39.2 °F 37.4 °F 30.5 in West 4.3 mph 5 mph 96% 0 in 7.00 W/m2 unknown
16:59 39.2 °F 37.4 °F 30.5 in West 4.3 mph 5 mph 97% 0 in 5.00 W/m2 unknown
17:04 39.2 °F 37.4 °F 30.5 in West 3.1 mph 5 mph 97% 0 in 0.00 W/m2 unknown
17:09 39.2 °F 37.4 °F 30.5 in West 2.5 mph 5 mph 97% 0 in 0.00 W/m2 unknown
17:14 37.4 °F 37.4 °F 30.5 in WSW 3.1 mph 3.7 mph 97% 0 in 0.00 W/m2 unknown
17:19 37.4 °F 37.4 °F 30.5 in West 3.1 mph 3.7 mph 97% 0 in 0.00 W/m2 unknown
17:24 37.4 °F 37.4 °F 30.5 in West 3.1 mph 3.7 mph 97% 0 in 0.00 W/m2 unknown
17:29 37.4 °F 37.4 °F 30.5 in West 3.1 mph 3.7 mph 97% 0 in 0.00 W/m2 unknown
17:34 37.4 °F 37.4 °F 30.5 in West 3.1 mph 3.7 mph 97% 0 in 0.00 W/m2 unknown
17:39 37.4 °F 37.4 °F 30.5 in West 3.1 mph 3.7 mph 97% 0 in 0.00 W/m2 unknown
17:44 37.4 °F 37.4 °F 30.5 in West 2.5 mph 3.7 mph 97% 0 in 0.00 W/m2 unknown
17:49 37.4 °F 35.6 °F 30.5 in West 1.9 mph 3.7 mph 97% 0 in 0.00 W/m2 unknown
17:54 37.4 °F 35.6 °F 30.5 in WSW 2.5 mph 3.7 mph 97% 0 in 0.00 W/m2 unknown
17:59 37.4 °F 35.6 °F 30.5 in WSW 3.1 mph 3.7 mph 97% 0 in 0.00 W/m2 unknown
18:04 37.4 °F 37.4 °F 30.5 in West 2.5 mph 3.7 mph 98% 0 in 0.00 W/m2 unknown
18:09 37.4 °F 37.4 °F 30.5 in West 3.1 mph 3.7 mph 98% 0 in 0.00 W/m2 unknown
18:14 37.4 °F 37.4 °F 30.5 in West 3.7 mph 6.2 mph 98% 0 in 0.00 W/m2 unknown
18:19 37.4 °F 35.6 °F 30.5 in West 3.1 mph 3.7 mph 98% 0 in 0.00 W/m2 unknown
18:24 37.4 °F 35.6 °F 30.5 in West 3.1 mph 3.7 mph 98% 0 in 0.00 W/m2 unknown
18:29 37.4 °F 35.6 °F 30.5 in West 3.1 mph 3.7 mph 98% 0 in 0.00 W/m2 unknown
18:34 37.4 °F 35.6 °F 30.6 in West 2.5 mph 3.7 mph 98% 0 in 0.00 W/m2 unknown
18:39 37.4 °F 35.6 °F 30.6 in West 3.1 mph 3.7 mph 98% 0 in 0.00 W/m2 unknown
18:44 37.4 °F 35.6 °F 30.6 in West 3.7 mph 5 mph 98% 0 in 0.00 W/m2 unknown
18:49 35.6 °F 35.6 °F 30.6 in West 3.7 mph 5 mph 98% 0 in 0.00 W/m2 unknown
18:54 35.6 °F 35.6 °F 30.5 in West 3.7 mph 4.3 mph 98% 0 in 0.00 W/m2 unknown
18:59 35.6 °F 35.6 °F 30.6 in WNW 3.1 mph 5 mph 98% 0 in 0.00 W/m2 unknown
19:04 35.6 °F 35.6 °F 30.6 in WNW 2.5 mph 3.7 mph 98% 0 in 0.00 W/m2 unknown
19:09 35.6 °F 35.6 °F 30.6 in WNW 2.5 mph 3.7 mph 98% 0 in 0.00 W/m2 unknown
19:14 35.6 °F 35.6 °F 30.6 in WNW 2.5 mph 3.7 mph 98% 0 in 0.00 W/m2 unknown
19:19 35.6 °F 33.8 °F 30.6 in West 2.5 mph 3.7 mph 98% 0 in 0.00 W/m2 unknown
19:24 35.6 °F 33.8 °F 30.6 in WNW 2.5 mph 3.7 mph 98% 0 in 0.00 W/m2 unknown
19:29 35.6 °F 33.8 °F 30.6 in WNW 3.1 mph 3.7 mph 98% 0 in 0.00 W/m2 unknown
19:34 33.8 °F 33.8 °F 30.6 in WNW 3.1 mph 3.7 mph 98% 0 in 0.00 W/m2 unknown
19:39 33.8 °F 33.8 °F 30.6 in West 2.5 mph 3.7 mph 98% 0 in 0.00 W/m2 unknown
19:44 33.8 °F 33.8 °F 30.6 in West 1.9 mph 3.7 mph 98% 0 in 0.00 W/m2 unknown
19:49 33.8 °F 33.8 °F 30.6 in West 1.9 mph 3.7 mph 98% 0 in 0.00 W/m2 unknown
19:54 33.8 °F 33.8 °F 30.6 in WNW 2.5 mph 3.7 mph 98% 0 in 0.00 W/m2 unknown
19:59 33.8 °F 33.8 °F 30.6 in WNW 2.5 mph 3.7 mph 98% 0 in 0.00 W/m2 unknown
20:04 33.8 °F 33.8 °F 30.6 in WNW 2.5 mph 3.7 mph 98% 0 in 0.00 W/m2 unknown
20:09 33.8 °F 33.8 °F 30.6 in WNW 2.5 mph 3.7 mph 98% 0 in 0.00 W/m2 unknown
20:14 33.8 °F 33.8 °F 30.6 in NW 1.9 mph 3.7 mph 98% 0 in 0.00 W/m2 unknown
20:19 33.8 °F 32 °F 30.6 in NW 1.2 mph 2.5 mph 98% 0 in 0.00 W/m2 unknown
20:24 33.8 °F 32 °F 30.6 in NW 3.1 mph 3.7 mph 98% 0 in 0.00 W/m2 unknown
20:29 33.8 °F 32 °F 30.6 in NW 1.9 mph 3.7 mph 98% 0 in 0.00 W/m2 unknown
20:34 33.8 °F 32 °F 30.6 in NW 2.5 mph 3.7 mph 98% 0 in 0.00 W/m2 unknown
20:39 33.8 °F 32 °F 30.6 in NW 3.1 mph 3.7 mph 98% 0 in 0.00 W/m2 unknown
20:44 33.8 °F 32 °F 30.6 in NW 3.1 mph 5 mph 98% 0 in 0.00 W/m2 unknown
20:49 32 °F 32 °F 30.6 in NNW 1.2 mph 5 mph 98% 0 in 0.00 W/m2 unknown
20:54 32 °F 32 °F 30.6 in NNW 1.2 mph 1.9 mph 98% 0 in 0.00 W/m2 unknown
20:59 32 °F 32 °F 30.6 in Calm   1.2 mph 98% 0 in 0.00 W/m2 unknown
21:04 32 °F 32 °F 30.6 in Calm     98% 0 in 0.00 W/m2 unknown
21:09 32 °F 32 °F 30.6 in Calm     98% 0 in 0.00 W/m2 unknown
21:14 32 °F 32 °F 30.6 in Calm     98% 0 in 0.00 W/m2 unknown
21:19 32 °F 32 °F 30.6 in Calm     98% 0 in 0.00 W/m2 unknown
21:24 32 °F 32 °F 30.6 in Calm     98% 0 in 0.00 W/m2 unknown
21:29 32 °F 32 °F 30.6 in Calm     98% 0 in 0.00 W/m2 unknown
21:34 32 °F 32 °F 30.6 in Calm     98% 0 in 0.00 W/m2 unknown
21:39 32 °F 32 °F 30.6 in Calm     98% 0 in 0.00 W/m2 unknown
21:44 32 °F 32 °F 30.6 in Calm     98% 0 in 0.00 W/m2 unknown
21:49 32 °F 32 °F 30.6 in Calm     98% 0 in 0.00 W/m2 unknown
21:54 32 °F 32 °F 30.6 in NW 0.6 mph 1.9 mph 98% 0 in 0.00 W/m2 unknown
21:59 32 °F 30.2 °F 30.6 in NNW 1.9 mph 2.5 mph 98% 0 in 0.00 W/m2 unknown
22:04 32 °F 32 °F 30.6 in North 1.9 mph 3.7 mph 98% 0 in 0.00 W/m2 unknown
22:09 32 °F 32 °F 30.6 in NNW 1.9 mph 3.1 mph 98% 0 in 0.00 W/m2 unknown
22:14 32 °F 32 °F 30.6 in NNW 1.9 mph 2.5 mph 98% 0 in 0.00 W/m2 unknown
22:19 32 °F 32 °F 30.6 in NNW 1.2 mph 2.5 mph 98% 0 in 0.00 W/m2 unknown
22:24 32 °F 32 °F 30.6 in NW 1.2 mph 2.5 mph 98% 0 in 0.00 W/m2 unknown
22:29 32 °F 32 °F 30.6 in NW 1.9 mph 2.5 mph 98% 0 in 0.00 W/m2 unknown
22:34 32 °F 32 °F 30.6 in WNW 2.5 mph 3.7 mph 98% 0 in 0.00 W/m2 unknown
22:39 32 °F 32 °F 30.6 in WNW 1.9 mph 3.7 mph 98% 0 in 0.00 W/m2 unknown
22:44 32 °F 30.2 °F 30.6 in WNW 3.1 mph 3.7 mph 98% 0 in 0.00 W/m2 unknown
22:49 32 °F 30.2 °F 30.6 in NW 3.1 mph 3.7 mph 98% 0 in 0.00 W/m2 unknown
22:54 32 °F 30.2 °F 30.6 in WNW 2.5 mph 3.7 mph 98% 0 in 0.00 W/m2 unknown
22:59 32 °F 30.2 °F 30.6 in WNW 2.5 mph 3.7 mph 98% 0 in 0.00 W/m2 unknown
23:04 32 °F 30.2 °F 30.6 in WNW 2.5 mph 3.7 mph 98% 0 in 0.00 W/m2 unknown
23:09 32 °F 30.2 °F 30.6 in WNW 1.9 mph 3.7 mph 98% 0 in 0.00 W/m2 unknown
23:14 32 °F 30.2 °F 30.6 in WNW 1.9 mph 3.7 mph 98% 0 in 0.00 W/m2 unknown
23:19 32 °F 30.2 °F 30.6 in NW 1.2 mph 3.1 mph 98% 0 in 0.00 W/m2 unknown
23:24 32 °F 30.2 °F 30.6 in NW 1.2 mph 2.5 mph 98% 0 in 0.00 W/m2 unknown
23:29 32 °F 30.2 °F 30.6 in NW 1.9 mph 2.5 mph 98% 0 in 0.00 W/m2 unknown
23:34 32 °F 30.2 °F 30.6 in NW 1.2 mph 2.5 mph 98% 0 in 0.00 W/m2 unknown
23:39 32 °F 30.2 °F 30.6 in NW 1.2 mph 1.9 mph 98% 0 in 0.00 W/m2 unknown
23:44 32 °F 30.2 °F 30.6 in Calm   1.2 mph 98% 0 in 0.00 W/m2 unknown
23:49 32 °F 30.2 °F 30.6 in Calm     98% 0 in 0.00 W/m2 unknown
23:54 32 °F 30.2 °F 30.6 in Calm     98% 0 in 0.00 W/m2 unknown
23:59 30.2 °F 30.2 °F 30.6 in SW 3.7 mph 3.7 mph 98% 0 in 0.00 W/m2 unknown
Stazione Meteorologica MeteoMincio Rivalta s/M (MN)
Con i complimenti di Weather Underground - 2 mb



METEO PILLOLE
Il luogo più caldo della Terra
Dallol - Etiopia
La temperatura media dal 1960 al 1966 è stata di 34,5°C.
Share

Non seguire questo link o sarai bannato dal sito!